Evergreen, AL

1:49 AM CDT on May 29, 2017 (GMT -0500)
Middleton

Weather History for KGZH - March, 2013

Change the Weather History Date:

Monday, March 25, 2013

  Actual Average (KPRN) Record (KPRN)
Temperature  
Mean Temperature 47 °F -  
Max Temperature 57 °F 71 °F 89 °F (1954)
Min Temperature 37 °F 45 °F 30 °F (1968)
Degree Days  
Heating Degree Days 18    
Moisture  
Dew Point 24 °F    
Average Humidity 44    
Maximum Humidity 67    
Minimum Humidity 22    
Precipitation  
Precipitation 0.00 in - - ()
Sea Level Pressure  
Sea Level Pressure 30.07 in    
Wind  
Wind Speed 7 mph (NW)    
Max Wind Speed 15 mph    
Max Gust Speed 25 mph    
Visibility 10 miles    
Events      
Averages and records for this station are not official NWS values.
T = Trace of Precipitation, MM = Missing Value Source: NWS Daily Summary

Daily Weather History Graph

Daily Weather History Graph

Search for Another Location

Airport or City:

Trip Planner

Search our weather history database for the weather conditions in past years. The results will help you decide how hot, cold, wet, or windy it might be!

Date:

Astronomy

Mar. 25, 2013 Rise Set
Actual Time 6:45 AM CDT 7:03 PM CDT
Civil Twilight 6:21 AM CDT 7:27 PM CDT
Nautical Twilight 5:52 AM CDT 7:55 PM CDT
Astronomical Twilight 5:23 AM CDT 8:24 PM CDT
Moon 5:37 PM CDT (3/25) 5:23 AM CDT (3/25)
Length of Visible Light 13h 06m
Length of Day
12h 17m
Waxing Gibbous, 96% of the Moon is Illuminated
Mar 25
Waxing Gibbous
Mar 27
Full
Apr 2
Last Quarter
Apr 10
New
Apr 18
First Quarter

Hourly Weather History & Observations

Time (CDT) Temp. Windchill Dew Point Humidity Pressure Visibility Wind Dir Wind Speed Gust Speed Precip Events Conditions
12:53 AM 44.1 °F 39.5 °F 28.9 °F 55% 29.94 in 10.0 mi NW 8.1 mph - N/A   Scattered Clouds
1:53 AM 45.0 °F 43.5 °F 28.9 °F 53% 29.95 in 10.0 mi Variable 3.5 mph - N/A   Overcast
2:53 AM 44.1 °F 39.0 °F 26.1 °F 49% 29.96 in 10.0 mi NW 9.2 mph 25.3 mph N/A   Overcast
3:53 AM 42.1 °F 37.7 °F 26.1 °F 53% 29.97 in 10.0 mi Variable 6.9 mph - N/A   Clear
4:53 AM 39.9 °F 36.7 °F 26.1 °F 58% 29.98 in 10.0 mi Variable 4.6 mph - N/A   Clear
5:53 AM 37.9 °F - 27.0 °F 65% 30.01 in 10.0 mi Calm Calm - N/A   Clear
6:53 AM 37.0 °F - 27.0 °F 67% 30.03 in 10.0 mi Calm Calm - N/A   Clear
7:53 AM 39.0 °F 34.8 °F 28.0 °F 65% 30.07 in 10.0 mi Variable 5.8 mph - N/A   Clear
8:53 AM 42.1 °F 36.6 °F 25.0 °F 51% 30.09 in 10.0 mi NNW 9.2 mph 19.6 mph 0.00 in   Clear
9:53 AM 44.1 °F 39.0 °F 25.0 °F 47% 30.11 in 10.0 mi West 9.2 mph 17.3 mph N/A   Clear
10:53 AM 48.0 °F - 26.1 °F 42% 30.10 in 10.0 mi NW 8.1 mph - N/A   Clear
11:53 AM 51.1 °F - 25.0 °F 36% 30.09 in 10.0 mi NNW 11.5 mph 19.6 mph N/A   Clear
12:53 PM 54.0 °F - 25.0 °F 33% 30.08 in 10.0 mi West 10.4 mph 21.9 mph N/A   Clear
1:53 PM 55.0 °F - 23.0 °F 29% 30.06 in 10.0 mi NNW 11.5 mph 20.7 mph N/A   Clear
2:53 PM 55.9 °F - 23.0 °F 28% 30.05 in 10.0 mi NW 11.5 mph 25.3 mph N/A   Clear
3:53 PM 57.0 °F - 19.9 °F 24% 30.04 in 10.0 mi NW 13.8 mph 23.0 mph N/A   Clear
4:53 PM 57.0 °F - 18.0 °F 22% 30.04 in 10.0 mi WNW 15.0 mph 25.3 mph N/A   Clear
5:53 PM 55.0 °F - 18.0 °F 23% 30.06 in 10.0 mi NW 9.2 mph - N/A   Clear
6:53 PM 51.1 °F - 17.1 °F 26% 30.09 in 10.0 mi NW 9.2 mph 21.9 mph N/A   Clear
7:53 PM 48.0 °F - 19.9 °F 33% 30.13 in 10.0 mi Variable 6.9 mph - N/A   Clear
8:53 PM 45.0 °F 43.5 °F 21.9 °F 40% 30.17 in 10.0 mi Variable 3.5 mph - N/A   Clear
9:53 PM 43.0 °F 40.3 °F 23.0 °F 45% 30.20 in 10.0 mi Variable 4.6 mph - N/A   Clear
10:53 PM 41.0 °F - 24.1 °F 51% 30.22 in 10.0 mi Calm Calm - N/A   Clear
11:53 PM 39.0 °F - 24.1 °F 55% 30.23 in 10.0 mi Calm Calm - N/A   Clear